This is the latest recevied weather packets stored in our database for station/object VK2ZAZ-10. If no packets are shown the sender has not sent any weather packets the latest 10 day(s).
| Time | Temp. | Humidity | Pressure | Rain* | Wind** | Luminosity | Snow |
|---|---|---|---|---|---|---|---|
| 1778285675 | 19.44° C | 44% | 1028 hPa | - | - | - | - |
| 1778283876 | 18.89° C | 44% | 1028 hPa | - | - | - | - |
| 1778282075 | 17.78° C | 46% | 1028 hPa | - | - | - | - |
| 1778280275 | 17.22° C | 46% | 1028 hPa | - | - | - | - |
| 1778278475 | 15.56° C | 48% | 1027.9 hPa | - | - | - | - |
| 1778276676 | 15° C | 48% | 1027.7 hPa | - | - | - | - |
| 1778274875 | 15° C | 47% | 1027.3 hPa | - | - | - | - |
| 1778273076 | 15.56° C | 46% | 1026.9 hPa | - | - | - | - |
| 1778271275 | 15.56° C | 45% | 1026.5 hPa | - | - | - | - |
| 1778269474 | 16.11° C | 45% | 1026.1 hPa | - | - | - | - |
| 1778267674 | 16.11° C | 45% | 1025.8 hPa | - | - | - | - |
| 1778265874 | 16.67° C | 45% | 1025.5 hPa | - | - | - | - |
| 1778264074 | 16.67° C | 44% | 1025.1 hPa | - | - | - | - |
| 1778262274 | 16.67° C | 44% | 1024.9 hPa | - | - | - | - |
| 1778260474 | 16.67° C | 45% | 1024.8 hPa | - | - | - | - |
| 1778258674 | 17.22° C | 44% | 1025 hPa | - | - | - | - |
| 1778256873 | 17.78° C | 44% | 1024.9 hPa | - | - | - | - |
| 1778255073 | 17.78° C | 44% | 1024.9 hPa | - | - | - | - |
| 1778253273 | 18.33° C | 44% | 1024.8 hPa | - | - | - | - |
| 1778251474 | 18.33° C | 44% | 1024.6 hPa | - | - | - | - |
| 1778249673 | 18.33° C | 44% | 1024.2 hPa | - | - | - | - |
| 1778247873 | 18.89° C | 44% | 1024.1 hPa | - | - | - | - |
| 1778246073 | 18.89° C | 44% | 1024.2 hPa | - | - | - | - |
| 1778244273 | 19.44° C | 44% | 1023.9 hPa | - | - | - | - |
| 1778242473 | 19.44° C | 44% | 1024 hPa | - | - | - | - |
* Rain since midnight (hover to see other rain measurements)
** Current wind speed in m/s (hover to see current wind gust speed)